Content
SEND FEEDBACK

Daily
Averages
Monthly
Summary
United States of America

WILMINGTON, NORTH CAROLINA


Home > North America > United States > North Carolina
Elevation: 72 feet     Latitude: 34 16N     Longitude: 077 54W

WEATHER
 
SELECT A DAY
Number of Records: 208,703;   Date Range: 1/1/95 - 7/23/14
 
SHARE

PRINT THIS DATA

[ ← Previous Day ]
WEATHER ALMANAC - DECEMBER 31, 2013
[ Next Day → ]
[ °C ]   °F
Weather ElementAverageHighLow
Temperature47.6 °F55.9 °F (1:53 pm)39 °F (10:53 pm)
Dewpoint37.7 °F43 °F (1:53 am)28 °F (3:53 pm)
Humidity70.7 %89 % (11:53 pm)37 % (1:53 pm)
Barometer30.25 in30.37 in (8:53 pm)30.11 in (4:53 am)
Wind Speed5.9 mph12.7 mph (8:21 am)
Wind Gust19.6 mph (9:42 am)
Weather ElementAverage
Visibility10 mi
Wind DirectionSSW (190 °)

Weather ElementTotal
Precipitation---
Heating Degree Days17.6 (Base 65)
Averaged from 28 records on December 31, 2013
WEATHER CONDITIONS BREAKOUT
WIND DIRECTION BREAKOUT
WEATHER BY HOUR - DECEMBER 31, 2013
[ °C ]   °F
Local TimeTemperatureDewpointHumidityBarometerVisibilityWind DirectionWind SpeedGust SpeedPrecipitationEventsConditions
1:53 AM48.9 °F43.0 °F80 %30.12 in10.0 miCalmClear
2:53 AM46.9 °F43.0 °F86 %30.14 in10.0 miCalmClear
3:53 AM46.9 °F43.0 °F86 %30.13 in10.0 miCalmClear
4:53 AM46.9 °F42.1 °F83 %30.11 in10.0 miSW (220°)4.6 mphPartly Cloudy
5:53 AM48.0 °F43.0 °F83 %30.14 in10.0 miWSW (240°)9.2 mphClear
6:53 AM48.0 °F43.0 °F83 %30.18 in10.0 miWest (260°)9.2 mphClear
7:22 AM48.2 °F42.8 °F82 %30.19 in10.0 miWest (270°)10.4 mphMostly Cloudy
7:53 AM48.9 °F43.0 °F80 %30.21 in10.0 miWest (280°)10.4 mphOvercast
8:10 AM46.4 °F42.8 °F87 %30.21 in10.0 miNNW (340°)11.5 mphOvercast
8:13 AM46.4 °F41.0 °F81 %30.21 in10.0 miNorth (350°)10.4 mphOvercast
8:21 AM46.4 °F41.0 °F81 %30.22 in10.0 miNorth (360°)12.7 mphOvercast
8:53 AM46.9 °F39.9 °F77 %30.24 in10.0 miNorth (350°)8.1 mphOvercast
9:42 AM48.2 °F37.4 °F66 %30.28 in10.0 miNorth (350°)12.7 mph19.6 mphScattered Clouds
9:53 AM48.0 °F36.0 °F63 %30.27 in10.0 miNNW (340°)10.4 mph17.3 mphClear
10:53 AM52.0 °F37.0 °F57 %30.28 in10.0 miNorth (10°)9.2 mphClear
11:53 AM54.0 °F36.0 °F51 %30.27 in10.0 miNW (320°)8.1 mphClear
12:53 PM55.0 °F34.0 °F45 %30.26 in10.0 miNorth (350°)6.9 mphClear
1:53 PM55.9 °F30.0 °F37 %30.25 in10.0 miNW (320°)12.7 mphClear
2:53 PM55.0 °F30.0 °F38 %30.25 in10.0 miNNW (330°)6.9 mphClear
3:53 PM53.1 °F28.0 °F38 %30.28 in10.0 miWNW (300°)8.1 mphClear
4:53 PM51.1 °F30.0 °F44 %30.29 in10.0 miNNW (330°)3.5 mphClear
5:53 PM46.0 °F35.1 °F66 %30.30 in10.0 miCalmClear
6:53 PM44.1 °F36.0 °F73 %30.33 in10.0 miCalmClear
7:53 PM43.0 °F36.0 °F76 %30.35 in10.0 miCalmClear
8:53 PM41.0 °F35.1 °F79 %30.37 in10.0 miCalmClear
9:53 PM39.9 °F35.1 °F83 %30.37 in10.0 miCalmClear
10:53 PM39.0 °F35.1 °F86 %30.37 in10.0 miCalmClear
11:53 PM39.0 °F36.0 °F89 %30.37 in10.0 miCalmClear
Hourly data recorded from KILM, located miles away from Wilmington, North Carolina







STORIES FROM OUR PARTNERS